www.pogodaiklimat.ru

Погода и климат >> Архив погоды >> Украина >> Белополе


ПОГОДА в Белополе

  • Прогноз погоды в Белополе
  • Монитор погоды в Белополе
  • Климат города

АРХИВ ПОГОДЫ в Белополе

Время (UTC), дата Ветер
(напр.,м/с)
 
Видим.   Явления Облачность Т
(С)
Тd
(С)
f
(%)
Тe
(С)
Тes
(С)
Комфортность P
(гПа)
Po
(гПа)
Тmin
(С)
Tmax
(С)
R
(мм)
R24
(мм)
S
(см)
00 20.09 ЮВ 2 4000 м 10 баллов +11.6 +10.7 94 +10 +10 1017.0 986.0 5
03 20.09 В 3 10 км 10 баллов +12.4 +9.4 82 +11 +11 1015.0 984.2
06 20.09 ЮВ 2 4000 м 10 баллов +12.6 +9.6 82 +12 +12 1015.0 984.2 +11.4 5
09 20.09 В 1 4000 м гроза, ливневой дождь 10 баллов +16.2 +10.7 70 +17 +17 1013.0 982.7
12 20.09 В 2 4000 м 10 баллов +19.6 +12.1 62 +22 +22 комфорт 1012.0 982.0
15 20.09 В 1 4000 м 10 баллов +19.2 +13.6 70 +22 +22 комфорт 1012.0 982.0
18 20.09 СВ 1 10 км ясно +16.6 +12.3 76 +17 +17 1011.0 980.8 +20.0
21 20.09 В 3 10 км 10 баллов +14.1 +10.5 79 +13 +13 1009.0 978.6
00 21.09 СВ 2 10 км 10 баллов +13.5 +10.8 84 +13 +13 1010.0 979.5
03 21.09 СВ 1 10 км 3 балла +12.0 +10.2 89 +12 +12 1009.0 978.3
06 21.09 В 1 4000 м 3 балла +14.1 +11.4 84 +14 +16 1008.0 977.6 +11.9
09 21.09 штиль 0 4000 м 10 баллов +21.6 +17.4 77 +26 +26 душно 1007.0 977.5
12 21.09 ЮВ 1 4000 м 10 баллов +23.3 +17.7 71 +29 +29 душно 1008.0 978.6
15 21.09 В 1 4000 м 10 баллов +21.7 +17.5 77 +26 +26 душно 1006.0 976.5
18 21.09 З 4 4000 м гроза, ливневой дождь 10 баллов +19.7 +16.7 83 +22 +22 комфорт 1007.0 977.3 +23.7
21 21.09 ЮЗ 2 4000 м дымка ясно +14.4 +13.8 96 +14 +14 1009.0 978.6
00 22.09 ЮЗ 1 4000 м дымка ясно +13.4 +12.5 94 +13 +13 1011.0 980.4 4
03 22.09 ЮЗ 2 4000 м дымка 10 баллов +14.3 +13.3 94 +14 +14 1011.0 980.5
06 22.09 СЗ 2 500 м туман н/о +14.9 +14.7 99 +15 +16 1011.0 980.6 +13.2 4
09 22.09 СЗ 2 9000 м дымка 10 баллов +17.7 +15.9 89 +18 +18 1011.0 980.9
12 22.09 СВ 1 10 км 6 баллов +24.0 +15.5 59 +27 +30 жарко 1008.0 978.6
15 22.09 З 4 10 км 10 баллов +17.9 +15.3 85 +18 +18 1009.0 979.0
18 22.09 З 4 10 км 10 баллов +15.1 +13.6 91 +14 +14 1010.0 979.7 +24.8
21 22.09 штиль 0 4000 м ливневой дождь 6 баллов +14.9 +13.8 93 +15 +15 1010.0 979.6
00 23.09 штиль 0 10 км ясно +13.7 +12.9 95 +13 +13 1014.0 983.4 3
03 23.09 ЮВ 1 10 км 10 баллов +12.6 +12.1 97 +12 +12 1016.0 985.2
06 23.09 ЮВ 1 10 км 10 баллов +13.9 +12.9 94 +14 +14 1017.0 986.3 +12.0 3
09 23.09 ЮВ 2 4000 м 9/0
[Ac trans Ci fib]
+15.9 +12.4 80 +16 +20 1019.1 987.5
12 23.09 ЮВ 1 4000 м 10 баллов +20.0 +13.9 68 +23 +23 комфорт 1019.0 988.9
15 23.09 В 3 8000 м ливневой дождь 10 баллов +15.2 +13.4 89 +14 +14 1021.0 990.3
18 23.09 В 2 4000 м ливневой дождь 10 баллов +12.4 +11.6 95 +11 +11 1022.0 991.0 +20.0 4
21 23.09 штиль 0 4000 м ливневой дождь 10 баллов +11.7 +11.1 96 +11 +11 1021.0 989.9
00 24.09 штиль 0 4000 м ливневой дождь 10 баллов +11.6 +10.7 94 +11 +11 1021.0 989.9 2
03 24.09 В 1 4000 м дымка 10 баллов +11.7 +10.9 95 +11 +11 1021.0 989.9
06 24.09 В 2 7000 м ливневой дождь 10 баллов +12.6 +11.8 95 +12 +12 1021.0 990.0 +11.5 2
09 24.09 В 2 6000 м ливневой дождь 10 баллов +12.6 +12.1 97 +12 +12 1021.0 990.0
12 24.09 В 2 7000 м ливневой дождь 10 баллов +12.8 +12.2 96 +12 +12 1022.0 991.0 5
15 24.09 В 3 7000 м дымка 10 баллов +12.6 +11.8 95 +11 +11 1023.0 992.0
18 24.09 В 2 10 км 10 баллов +12.2 +11.3 94 +11 +11 1025.0 993.9 +12.9 5
21 24.09 ЮВ 2 10 км 10 баллов +12.0 +11.4 96 +11 +11 1025.0 993.9
00 25.09 штиль 0 10 км ясно +10.6 +9.8 95 +10 +10 1026.0 994.7
03 25.09 В 1 4000 м ливневой дождь 10 баллов +10.1 +9.6 97 +9 +9 1026.0 994.6
06 25.09 В 1 4000 м 10 баллов +11.6 +10.8 95 +11 +11 1027.0 995.7 +9.9 0.4
09 25.09 В 2 10 км ливневой дождь 10 баллов +12.9 +12.0 94 +12 +12 1028.0 996.9
12 25.09 В 2 4000 м 10 баллов +19.5 +14.9 75 +22 +22 комфорт 1027.0 996.6 2
15 25.09 В 2 4000 м 10 баллов +18.3 +12.5 69 +19 +19 1028.0 997.4
18 25.09 штиль 0 10 км ясно +13.5 +9.5 77 +13 +13 1029.0 997.9 +19.9 2
21 25.09 штиль 0 10 км ясно +10.8 +8.0 83 +10 +10 1030.1 998.7
00 26.09 штиль 0 10 км ясно +9.7 +7.0 83 +9 +9 1031.0 999.4
03 26.09 В 2 10 км 10 баллов +10.0 +6.7 80 +9 +9 1031.0 999.4
06 26.09 В 1 10 км 10 баллов +9.4 +6.3 81 +9 +9 1032.0 1000.3 +9.3
09 26.09 В 2 4000 м 6 баллов +16.5 +7.2 54 +17 +20 1032.0 1001.1
12 26.09 В 3 4000 м 6 баллов +17.5 +6.1 47 +18 +20 1031.0 1000.2
15 26.09 В 1 4000 м 10 баллов +15.1 +6.1 55 +16 +16 1031.0 1000.0
18 26.09 В 1 10 км 3 балла +10.0 +6.0 76 +10 +10 1033.0 1001.3 +18.1
21 26.09 штиль 0 10 км ясно +8.8 +5.5 80 +8 +8 1034.0 1002.2

 

Местоположение метеостанции Белополе (Винницкая область, Украина): широта 49.83 долгота 28.88 высота над уровнем моря 258 м.

В архиве по умолчанию представлена погода в Белополе за последнюю неделю. Архивные данные за месяц целиком и за предыдущие месяцы, начиная с января 2011 года, Вы можете получить, выбрав интересующий диапазон дат из раскрывающегося списка и нажав кнопку "Ввод!".

Внимание! Время в таблицах - всемирное. Для получения местного времени необходимо прибавить поправку, которая в Белополе равна 2 ч.

Смотрите также архив погоды в соседних городах и на ближайших метеорологических станциях:

Погода в Житомире (Житомирская область, Украина) (46 км)
Погода в Виннице (Винницкая область, Украина) (70 км)
Погода в Фастове (Киевская область, Украина) (79 км)
Погода в Белой Церкви (Киевская область, Украина) (89 км)
Погода в Жмеринке (Винницкая область, Украина) (103 км)
Погода в Тетереве (Киевская область, Украина) (109 км)
Погода в Жашкове (Черкасская область, Украина) (109 км)
Погода в Хмельнике (Винницкая область, Украина) (110 км)
Погода в Гайсине (Винницкая область, Украина) (121 км)
Погода в Новограде-Волынском (Житомирская область, Украина) (123 км)

Пояснения к столбцам:

Ветер - указаны скорость ветра в м/с - средняя за 10 мин, порывы в срок и между сроками (в фигурных скобках) и направление, откуда дует ветер: С - северный, СВ - северо-восточный, В - восточный, ЮВ - юго-восточный, Ю - южный, ЮЗ - юго-западный, З - западный, СЗ - северо-западный.
Видимость - горизонтальная дальность видимости в метрах или километрах. При видимости от 1 до 10 км при отсутствии осадков обычно наблюдается дымка, при ухудшении видимости до 1 км и менее - туман. В сухую погоду видимость может ухудшаться дымом, пылью или мглою.
Явления - указаны атмосферные явления, наблюдавшиеся в срок или в последний час перед сроком; фигурными скобками обозначены явления, наблюдавшиеся между сроками (за 1-3 часа до срока); квадратными скобками обозначены град или гололедные отложения с указанием их диаметра в мм.
Облачность - указаны через наклонную черту общая и нижняя облачность в баллах и высота нижней границы облаков в метрах; квадратными скобками обозначены формы облаков: Ci - перистые, Cs - перисто-слоистые, Cc - перисто-кучевые, Ac - высококучевые, As - высокослоистые, Sc - слоисто-кучевые, Ns - слоисто-дождевые, Cu - кучевые, Cb - кучево-дождевые. Подробнее классификацию облаков см. в Атласе облаков (PDF).
T - Температура воздуха - температура, измеренная на высоте 2 м над землей.
Td - Температура точки росы - температура, при понижении до которой содержащийся в воздухе водяной пар достигнет насыщения.
f - Относительная влажность воздуха - влажноcть воздуха, измеренная на высоте 2 м над землей.
Te - Эффективная температура - температура, которую ощущает одетый по сезону человек в тени. Характеристика душности погоды. При расчете учитывается влияние влажности воздуха и скорости ветра на теплоощущения человека.
Tes - Эффективная температура на солнце - температура, которую ощущает человек, с поправкой на солнечный нагрев. Характеристика знойности погоды. Зависит от высоты солнца над горизонтом, облачности и скорости ветра. Ночью, в пасмурную погоду, а также при ветре 12 м/с и более поправка равна нулю.
P - Атмосферное давление - приведенное к уровню моря атмосферное давление.
Po - Атмосферное давление - измеренное на уровне метеостанции атмосферное давление.
Tmin - Минимальная температура - минимум температуры воздуха на высоте 2 м над землей.
Tmax - Максимальная температура - максимум температуры воздуха на высоте 2 м над землей.
R - Количество осадков - Количество выпавших осадков за период времени, мм. При наведении курсора мыши на число - период времени, за который выпало указанное количество осадков.
R24 - Количество осадков - Количество выпавших осадков за 24 часа, мм.
S - Снежный покров - Высота снежного покрова, см. При наведении курсора мыши на число - состояние снежного покрова и степень покрытия местности в баллах.